Location: Gensac
(43.2177°N, 1.1313°E)
Time: 09:03:33
(UTC+00:00)

IGS 5A - Pass Details

Date: 15 March 2026
Orbit: 551 x 554 km, 97.4° (Epoch: 8 January)

Event Time Altitude Azimuth Distance (km) Brightness Sun altitude
Rises 05:29:15 0° 15° (NNE) 2,735 7.1 -7.9°
Reaches altitude 10° 05:31:24 10° 18° (NNE) 1,836 6.3 -7.5°
Maximum altitude 05:35:21 65° 101° (E) 607 3.8 -6.8°
Drops below altitude 10° 05:39:16 10° 184° (S) 1,821 5.9 -6.0°
Sets 05:41:24 0° 187° (S) 2,710 6.8 -5.7°
